7 * 24
多渠道服务支持
INTELSAT 31是由国际通信卫星组织(ITSO)运营的通信卫星,于2016年6月9日发射升空。该卫星基于成熟的商用卫星平台打造,属于地球静止轨道通信卫星,主要接替在轨老化卫星,为全球范围提供通信广播服务。作为国际通信卫星组网的重要组成部分,它承担着跨区域语音、数据传输及媒体广播保障任务,持续为全球用户提供稳定可靠的卫星通信连接,服务商业通信与公共通信领域需求。
(ITSO)
| 数据来源 | 国际轨道数据 |
| 星历时间: | 2026-09-11T13:46:54+0800 7小时前 查看轨道信息 |
| 半长轴: | 42164.672km |
| 偏心率: | 0.0001716 |
| 轨道倾角: | 0.030° |
| 近地点辐角 | 66.568° |
| 升交点赤经 | 244.743° |
| 平近点角 | 30.635° |
| 近地点: | 35779.299km |
| 远地点: | 35793.771km |
| 周期: | 1436.094分钟 |
| 每日圈数: | 1.00272 |